Location: Salisbury
(35.6710°N, 80.4740°W)
Time: 02:47:07
(UTC-04:00)

Envisat - Visible Passes

Search period start: 25 May 2018 00:00
Search period end: 04 June 2018 00:00
Orbit: 764 x 766 km, 98.2° (Epoch: 24 May)

Date Brightness Start Highest point End Pass type
(mag) Time Alt. Az. Time Alt. Az. Time Alt. Az.
26 May 5.3 21:47:31 10° SW 21:51:16 21° W 21:55:02 10° NW visible
27 May 4.0 21:09:27 10° S 21:14:21 49° W 21:19:17 10° NNW visible
28 May 5.9 22:15:53 10° WSW 22:17:05 11° W 22:18:17 10° WNW visible
29 May 5.0 21:35:48 10° SSW 21:40:02 26° W 21:44:18 10° NW visible
30 May 3.5 20:58:10 10° S 21:03:10 63° W 21:08:14 10° NNW visible
31 May 5.6 22:03:07 10° SW 22:05:49 14° W 22:08:31 10° WNW visible
01 Jun 4.6 21:24:14 10° SSW 21:28:49 34° W 21:33:25 10° NNW visible
03 Jun 5.5 21:51:03 10° SW 21:54:34 19° W 21:58:05 10° NW visible
